Tracking 18840 objects as of 19-November-2017
HD Live streaming from Space Station
objects crossing your sky now

CZ-2C DEB

Track CZ-2C DEB now!
10-day predictions


NORAD ID: 40263
Int'l Code: 2014-059C
Perigee: 653.3 km
Apogee: 807.7 km
Inclination: 98.3 °
Period: 99.3 minutes
Semi major axis: 7101 km
RCS: Unknown
Launch date: September 28, 2014
Source: People's Republic of China (PRC)
Launch site: Jiuquan Satellite Launch Center, China (JSC)

Note: This is SATELLITE DEBRIS
aabbcc
Your satellite tracking list
Your tracking list is empty




NASA's NSSDC Master Catalog

Two Line Element Set (TLE):
1 40263U 14059C   17323.19688230  .00000731  00000-0  18430-3 0  9997
2 40263  98.2956  51.1148 0108768 311.6611  47.5310 14.50700871166281
Source of the keplerian elements: AFSPC